Terug naar catalogus

STARLINK-36296

ActiefCommunicatieSSO
NORAD 68380·PAYLOAD·🇺🇸 United States

Gelanceerd Mar 26, 2026 vanaf Vandenberg Space Force Base

Loading…

Volgende Passages (komende 24 uur)

TLE

VersSource: CelesTrak SupGP

Epoch: Sep 15, 2026, 02:54 UTC

1 68380C 26063A   26258.12131944 -.00031812  00000+0 -98767-3 0  2584
2 68380  97.2864  42.0330 0000928  86.6573 110.0386 15.33451442    11

Volg STARLINK-36296 in realtime met AllMySat

Download on the App Store